Regional Weather Roundup
Issued by NWS

Home | Current Version | Previous Version | Text Only | Print | Product List | Glossary Off
Versions: 1 2 3 4 5 6 7 8 9 10 11 12 13 14 15 16 17 18 19 20 21 22 23 24 25 26 27 28 29 30 31 32 33 34 35 36 37 38 39 40 41 42 43 44 45 46 47 48 49 50

364
ASUS44 KMEG 120700
RWRTN
TENNESSEE HOURLY STATE WEATHER ROUNDUP
NATIONAL WEATHER SERVICE MEMPHIS TN
100 AM CST FRI FEB 12 2016

TNZ002-004-019-021-049-052-054-088>092-120800-
WEST TENNESSEE

CITY           SKY/WX    TMP DP  RH WIND       PRES   REMARKS
MEMPHIS INTL   CLOUDY    42  24  49 E5        30.17S
NWS MEMPHIS      N/A     38 N/A N/A MISG        N/A
JACKSON        MOCLDY    35  23  61 E6        30.18R WCI  30
DYERSBURG      CLOUDY    34  25  69 NE8       30.23S WCI  27
UNION CITY     CLEAR     28  21  74 CALM      30.21R
PARIS          MOCLDY    28  19  69 NE3       30.20S
LEXINGTON      PTCLDY    34  21  60 E5        30.15F WCI  30
$$

TNZ008-025-027-028-033-062-065-066-120800-
NORTH MIDDLE TENNESSEE

CITY           SKY/WX    TMP DP  RH WIND       PRES   REMARKS
NASHVILLE      CLOUDY    34  20  56 CALM      30.20F
CLARKSVILLE    CLOUDY    31  18  58 SE7       30.17F WCI  24
COOKEVILLE     PTCLDY    32  25  74 CALM      30.17F
CROSSVILLE     CLOUDY    29  18  63 CALM      30.16R
$$

TNZ061-075-076-078-094-096-097-120800-
SOUTH MIDDLE TENNESSEE

CITY           SKY/WX    TMP DP  RH WIND       PRES   REMARKS
TULLAHOMA      CLEAR     30  21  69 E3        30.16F
WINCHESTER     MOCLDY    30  27  86 CALM      30.18S
MCMINNVILLE    CLEAR     30  23  74 NE5       30.17F WCI  25
COLUMBIA       MOCLDY    32  27  80 CALM      30.16F
SHELBYVILLE    PTCLDY    30  27  86 N3        30.19F
$$

TNZ017-018-042-046-047-120800-
NORTHEAST TENNESSEE

CITY           SKY/WX    TMP DP  RH WIND       PRES   REMARKS
TRI CITIES     CLOUDY    27  20  75 CALM      30.18F
$$

TNZ012-013-036-069-073-074-120800-
CENTRAL EAST TENNESSEE

CITY           SKY/WX    TMP DP  RH WIND       PRES   REMARKS
KNOXVILLE      CLOUDY    31  19  61 N8        30.17F WCI  23
OAK RIDGE      MOCLDY    32  17  54 VRB3      30.20F
GATLINBURG     PTSUNNY   27  21  80 CALM      30.17F
$$

TNZ083-085-099-120800-
SOUTHEAST TENNESSEE

CITY           SKY/WX    TMP DP  RH WIND       PRES   REMARKS
CHATTANOOGA    MOCLDY    35  22  58 N9        30.19F WCI  28
$$

SKY/WX REPORTED AS FAIR MEANS FEW OR NO CLOUDS BELOW
12 THOUSAND FEET.





USA.gov is the U.S. government's official web portal to all federal, state and local government web resources and services.